Regional Weather Roundup
Issued by NWS Goodland, KS

Home | Current Version | Previous Version | Text Only | Print | Product List | Glossary On
Versions: 1 2 3 4 5 6 7 8 9 10 11 12 13 14 15 16 17 18 19 20 21 22 23 24 25 26 27 28 29 30 31 32 33 34 35 36 37 38 39 40 41 42 43 44 45 46 47 48 49 50
000
ASUS43 KGLD 090859
RWRGLD

GOODLAND FORECAST AREA HOURLY WEATHER ROUNDUP
NATIONAL WEATHER SERVICE GOODLAND KS
200 AM MST FRI DEC 09 2016

...OFFICIAL OBSERVATIONS...

CITY           SKY/WX    TMP DP  RH WIND       PRES   REMARKS
GOODLAND KS    CLOUDY     4   0  83 SE7       30.32F
HILL CITY KS   CLOUDY     6   2  83 CALM      30.53S
IMPERIAL NEB   CLOUDY     9   1  70 SE8       30.36F
MCCOOK NEB     CLOUDY     2  -3  80 CALM      30.46F
AKRON CO       CLOUDY    11   2  67 S13       30.18F WCI  -4
BURLINGTON CO  CLOUDY     8   0  69 S13       30.27F WCI  -8
LIMON CO       CLOUDY     1  -2  87 SE6       30.16F
$$

...UNOFFICIAL OBSERVATIONS...

CITY           SKY/WX    TMP DP  RH WIND       PRES   REMARKS
COLBY KS       CLEAR      7   3  85 SE6       30.41F
LENORA KS        N/A      9  32 100 MISG        N/A
NORTON KS      CLOUDY     5   0  78 S5        30.49S
SHARON SPRINGS   N/A     11   7  83 SE12        N/A  WCI  -3
TRENTON NEB      N/A      5  32 100 S5          N/A
KIT CARSON CO    N/A      9   1  68 MISG        N/A
YUMA CO        MOCLDY    12   3  67 SE13G18   30.24F WCI  -3
$$




USA.gov is the U.S. government's official web portal to all federal, state and local government web resources and services.